Home > Weather > Toowoomba > Past weeks

Flag for Australia Past Weather in Toowoomba, Queensland, Australia — Yesterday and Last 2 Weeks

Now
49 °F

Cool.


Feels Like: 46 °F
Forecast: 45 / 60 °F
Wind: 7 mph from Northwest

Location: Oakey Aerodrome

Current Time: Jul 27, 2016 at 5:55:23 AM

Latest Report: Jul 27, 2016 at 4:00 AM


Visibility: N/A

Pressure: 30.10 "Hg (28.01 "Hg at 597m altitude)

Humidity: 69%

Dew Point: 39 °F

Location of ToowoombaLocation

Past Weather in Toowoomba — Graph

°F

Toowoomba Temperature Yesterday

Maximum temperature yesterday: 64 °F (at 3:00 PM)
Minimum temperature yesterday: 44 °F (at 6:00 AM)
Average temperature yesterday: 53 °F

High & Low Weather Summary for the Past Weeks

 TemperatureHumidityPressure
High77 °F (Jul 22, 1:00 PM)99% (Jul 12, 6:00 AM)30.40 "Hg (Jul 12, 6:00 AM)
Low39 °F (Jul 25, 7:00 AM)30% (Jul 25, 3:00 PM)29.86 "Hg (Jul 23, 3:00 PM)
Average57 °F73%30.16 "Hg
* Reported Jul 12 4:00 AM — Jul 27 4:00 AM, Toowoomba, Weather by CustomWeather, © 2016

Note: Actual official high and low records may vary slightly from our data, if they occured in-between our weather recording intervals... More about our weather records

Advertising

Toowoomba Weather History for the Previous 24 Hours

Scroll right to see more
 ConditionsComfort  
Time TempWeatherWind HumidityBarometerVisibility
4:00 AM
Wed, Jul 27
49 °FCool.7 mph69%30.10 "HgN/A
3:00 AM49 °FOvercast.7 mph70%30.11 "HgN/A
1:00 AM51 °FCool.6 mph62%30.11 "HgN/A
12:00 AM53 °FOvercast.8 mph57%30.11 "HgN/A
10:00 PM
Tue, Jul 26
53 °FCool.9 mph56%30.11 "HgN/A
9:00 PM56 °FOvercast.10 mph48%30.11 "HgN/A
7:00 PM56 °FRefreshingly cool.6 mph50%30.08 "HgN/A
6:00 PM57 °FOvercast.7 mph46%30.06 "HgN/A
4:00 PM63 °FMild.9 mph31%30.04 "HgN/A
3:00 PM64 °FOvercast.10 mph32%30.05 "HgN/A
1:00 PM60 °FRefreshingly cool.9 mph37%30.09 "HgN/A
12:00 PM58 °FPartly sunny.8 mph39%30.11 "HgN/A
10:00 AM53 °FCool.8 mph60%30.16 "HgN/A
9:00 AM50 °FPartly sunny.6 mph61%30.17 "HgN/A
7:00 AM45 °FQuite cool.8 mph81%30.14 "HgN/A
6:00 AM44 °FOvercast.7 mph80%30.14 "HgN/A
Weather by CustomWeather, © 2016

See weather overviewHow to use our weather pages